Location: Newark
(50.0953°N, 2.1719°E)
Time: 23:23:13
(UTC+00:00)

N. Korean satellite - Pass Details

Date: 20 January 2020
Orbit: 456 x 505 km, 97.2° (Epoch: 19 February)

Event Time Altitude Azimuth Distance (km) Brightness Sun altitude
Rises 16:55:09 0° 174° (S) 2,469 10.4 -5.2°
Reaches altitude 10° 16:57:12 10° 178° (S) 1,597 9.5 -5.5°
Maximum altitude 17:00:35 60° 259° (W) 531 7.2 -6.0°
Drops below altitude 10° 17:04:00 10° 340° (NNW) 1,610 9.2 -6.5°
Sets 17:06:04 0° 344° (NNW) 2,491 10.1 -6.8°
